THORAD AGENA D R/B, 4367

Orbit data source: Space-Track

THORAD AGENA D R/B, 4367 is space debris in SSO originally from a launch on Wed, 08 Apr 1970 UTC launched from the Air Force Western Test Range (AFWTR). Debris objects in space refer to the collection of defunct objects orbiting the Earth. Examples of debris include non-operational satellites, rocket bodies, and fragments generated from explosions, collisions, or faulty payload assembly.

Loading next visibility...
Identifier
4367, 1970-025C
Orbit
SSO
Country
Flag of USUS
Related business
Manufacturer
LMSC
Mission
Spacecraft
Bus & Motor
AGENA D, Unknown motor
Mass
600 kg wet, 600 kg dry
Launch date (UTC)
1970-04-08 (56 years ago)
Launch vehicle
Unknown
Launch site
Air Force Western Test Range (AFWTR)
Object type
Payload
Rocket body
Debris
Shape & HBR
CYL, 3.1 m
Radar Cross Section
Large (>1 m²)

Expand to show TLE details & history
Last TLE update: 10 hours ago

TLE from 10 hours ago
0 THORAD AGENA D R/B
1 04367U 70025C   26238.21139711 -.00000013  00000-0  50971-4 0  9991
2 04367  99.9779 322.4748 0035228 226.2095 190.0030 13.51533528792386
Epoch: 2026-08-26T05:04Z
TLE epoch observation values (Epoch: 2026-08-26T05:04:24.710Z)
Latitude
54.96944°
Longitude
-102.55461°
Altitude
1,101.452 km
Speed
7.294 km/s
True Right ascension
20h 32m 03s
True Declination
54° 48' 54"
Sunlit
Object was in daylight at epoch
Visualization orbit readout
Latitude
Unknown
Longitude
Unknown
Altitude
Unknown
Speed
Unknown
Apparent Right ascension
Unknown
Apparent Declination
Unknown
Sunlit
N/A
Visualization observer readout
Local Sidereal Time
06:00:25
Azimuth
Unknown
Elevation
Unknown
Doppler factor
Unknown
Orbital elements
Apogee altitude
1,090.152 km
Perigee altitude
1,037.719 km
Semi-major axis
7,442.072 km
Eccentricity
0.00352
Inclination
99.9779°
RAAN
322.4748°
Arg. of periapsis
226.2095°
True anomaly
189.93318°
Mean anomaly
190.003°
Eccentric anomaly
189.96806°
Mean motion
3.38067 °/min
Orbital period
106.49 mins
BSTAR
0.000050971
Loading maneuver chart data...
Computing Atmospheric mass density...

Documentation

Showing up to 5 results
|